Regional Weather Roundup
Issued by NWS Upton, NY

Current Version | Previous Version | Text Only | Print | Product List | Glossary On
Versions: 1 2 3 4 5 6 7 8 9 10 11 12 13 14 15 16 17 18 19 20 21 22 23 24 25 26 27 28 29 30 31 32 33 34 35 36 37 38 39 40 41 42 43 44 45 46 47 48 49 50
000 ASUS41 KOKX 242004 RWROKX REGIONAL WEATHER ROUNDUP NATIONAL WEATHER SERVICE NEW YORK NY 400 PM EDT WED AUG 24 2016 NOTE: "FAIR" INDICATES FEW OR NO CLOUDS BELOW 12,000 FEET WITH NO SIGNIFICANT WEATHER AND/OR OBSTRUCTIONS TO VISIBILITY. NYZ071-072-176-178-NJZ106-104-242100- NEW YORK CITY METRO AREA CITY SKY/WX TMP DP RH WIND PRES REMARKS Central Park N/A 86 59 39 MISG N/A LaGuardia APRT MOSUNNY 86 60 41 S18 30.18F Kennedy INTL MOSUNNY 81 65 58 S15 30.21F Newark/Liberty MOSUNNY 87 57 35 S6 30.18F Bronx Bot Gard N/A 86 59 39 W13 30.20R Wall St Helipt CLEAR 86 63 45 SW8 30.20F Teterboro SUNNY 86 59 39 S12 30.16F $$ NYZ177-179-078>081-242100- LONG ISLAND NEW YORK CITY SKY/WX TMP DP RH WIND PRES REMARKS Farmingdale SUNNY 82 62 50 S16 30.21F MacArthur/ISP MOSUNNY 83 57 41 SW12 30.20F Shirley SUNNY 82 60 47 S10 30.21F Riverhead NOT AVBL Westhampton SUNNY 81 58 45 SW12G18 30.23F Southampton N/A 77 68 73 SW7 30.18S Bridgehampton N/A 82 64 54 S2 30.21F East Hampton FAIR 78 62 57 SW9 30.21F Montauk N/A 79 64 60 S7 30.23F $$ NYZ052-065-067-242100- HUDSON VALLEY CITY SKY/WX TMP DP RH WIND PRES REMARKS White Plains MOSUNNY 84 59 42 SE8 30.19F Newburgh MOSUNNY 82 63 51 W9 30.20F Montgomery SUNNY 85 63 47 SW9 30.18F Poughkeepsie SUNNY 86 60 41 S6 30.16F Albany PTSUNNY 84 60 44 SE8 30.15F $$ NJZ001-105-106-008-010-013-015-019>022-104-242100- NEW JERSEY CITY SKY/WX TMP DP RH WIND PRES REMARKS Newark/Liberty MOSUNNY 87 57 35 S6 30.18F Teterboro SUNNY 86 59 39 S12 30.16F Caldwell N/A 86 59 39 VRB7 30.19F Morristown MOSUNNY 84 61 45 W10 30.20F Somerville SUNNY 84 61 45 S7 30.18F Linden FAIR 88 56 33 S7 30.20F Sussex SUNNY 84 62 47 W6 30.20F Abdover N/A 82 60 47 VRB5 30.21F Trenton SUNNY 85 59 41 SW12 30.19F Millville SUNNY 82 64 54 S6 30.22F Atlantic City SUNNY 83 61 47 S13 30.22F Wrightstown SUNNY 85 62 46 SW5 30.17F Toms River SUNNY 87 60 40 W3 30.21F Belmar SUNNY 83 62 49 SE9 30.22F $$ PAZ047>061-062-071-242100- EASTERN PENNSYLVANIA CITY SKY/WX TMP DP RH WIND PRES REMARKS Philadelphia MOSUNNY 85 59 41 SW14 30.21F Allentown SUNNY 85 61 44 SW10 30.20F Scranton SUNNY 83 60 45 S8G16 30.19F $$ CTZ002-004>006-009-010-012-RIZ004-006-007-MAZ004-011-015-242100- SOUTHERN NEW ENGLAND IN CT CITY SKY/WX TMP DP RH WIND PRES REMARKS Bradley INTL MOSUNNY 86 58 38 SW8 30.17F Hartford SUNNY 88 59 37 S7 30.17F Danbury SUNNY 83 57 41 MISG 30.21F Wtrbury/Oxford MOSUNNY 82 57 42 S5 30.24F Bridgeport SUNNY 85 56 37 S8 30.19F Meriden SUNNY 85 60 42 S9 30.18F New Haven SUNNY 83 57 41 S7 30.19F Chester FAIR 82 55 39 VRB6G12 30.21F Groton SUNNY 78 67 68 S9 30.20F Wilimantic SUNNY 85 60 42 S6 30.19F IN RI CITY SKY/WX TMP DP RH WIND PRES REMARKS Providence MOSUNNY 87 56 34 VRB3 30.17F Block Island SUNNY 78 65 63 SW13 30.22F Westerly SUNNY 81 61 50 S12 30.21F IN MA CITY SKY/WX TMP DP RH WIND PRES REMARKS Boston MOSUNNY 80 61 52 SE14 30.15F Worcester SUNNY 81 54 39 SW10 30.21F Westfield SUNNY 86 59 39 S14 30.16F Provincetown SUNNY 82 62 50 S9 30.18F Nantucket SUNNY 75 68 78 SW13 30.22F $$ ANZ330-335-338-340-345-350-353-355-242100- COASTAL MARINE OBSERVATIONS STATION/POSITION TIME SKY/WX TEMP WIND PRES VSBY WAVE AIR SEA DIR/SP/G HT/PER (UTC) (F) (DEG/KT/KT) (MB) (MI) (FT/S) NY HARB ENTRANCE 1850 77 78 170/ 10/ 12 1023.2 1/13 20S FIRE ISLAND 1850 76 77 210/ 8/ 10 1023.8 2/12 GREAT SOUTH BAY 1930 76 80 200/ 12/ 14 N/A 23 SSW MONTAUK P 1850 76 75 220/ 8/ 10 1024.1 2/12 15 E BARNEGAT LI 1900 78 N/A 2/13 HUDSON CANYON 1850 76 79 1024.5 2/12 KINGS POINT 1900 81 77 1022.5 EXECUTION ROCKS 1900 83 190/ 10/ 14 N/A CENTRAL LI SOUND 1900 78 76 160/ 4/ 6 N/A 0 EASTERN LI SOUND 1900 74 71 190/ 4/ 8 N/A ROBBINS REEF 1912 77 160/ 20/ 21 1021.9 $$ >>>>>>>>>>>>>>>>>>>>>>>>>>>> KEY <<<<<<<<<<<<<<<<<<<<<<<<<<< > < > SKY/WX - Sky Condition/Present Weather < > TMP - Temperature in Fahrenheit < > DP - Dew Point in Fahrenheit < > RH - Relative Humidity in Percent < > WIND - Direction (from) and Speed in MPH < > PRES - Mean Sea Level Pressure (inches of Hg) < > WCI - Wind Chill Index < > VSB - VISIBILITY IN MILES < > HX - HEAT INDEX < > TC - TEMPERATURE IN CELSIUS < > VRB - VARIABLE WIND DIRECTION < > < >>>>>>>>>>>>>>>>>>>>>>>>>>>> KEY <<<<<<<<<<<<<<<<<<<<<<<<<<<

USA.gov is the U.S. government's official web portal to all federal, state and local government web resources and services.